Year,Month,Day,Hour,Minute,Value (Times are PST for temperature in C)
2015,03,11,00,00,7.70
2015,03,11,00,01,7.70
2015,03,11,00,02,7.70
2015,03,11,00,03,7.70
2015,03,11,00,04,7.70
2015,03,11,00,05,7.70
2015,03,11,00,06,7.70
2015,03,11,00,07,7.70
2015,03,11,00,08,7.70
2015,03,11,00,09,7.70
2015,03,11,00,10,7.70
2015,03,11,00,11,7.70
2015,03,11,00,12,7.70
2015,03,11,00,13,7.70
2015,03,11,00,14,7.70
2015,03,11,00,15,7.70
2015,03,11,00,16,7.70
2015,03,11,00,17,7.70
2015,03,11,00,18,7.70
2015,03,11,00,19,7.70
2015,03,11,00,20,7.70
2015,03,11,00,21,7.70
2015,03,11,00,22,7.70
2015,03,11,00,23,7.80
2015,03,11,00,24,7.80
2015,03,11,00,25,7.80
2015,03,11,00,26,7.80
2015,03,11,00,27,7.80
2015,03,11,00,28,7.80
2015,03,11,00,29,7.80
2015,03,11,00,30,7.80
2015,03,11,00,31,7.80
2015,03,11,00,32,7.80
2015,03,11,00,33,7.80
2015,03,11,00,34,7.80
2015,03,11,00,35,7.80
2015,03,11,00,36,7.80
2015,03,11,00,37,7.80
2015,03,11,00,38,7.80
2015,03,11,00,39,7.80
2015,03,11,00,40,7.80
2015,03,11,00,41,7.80
2015,03,11,00,42,7.80
2015,03,11,00,43,7.80
2015,03,11,00,44,7.80
2015,03,11,00,45,7.80
2015,03,11,00,46,7.80
2015,03,11,00,47,7.80
2015,03,11,00,48,7.80
2015,03,11,00,49,7.80
2015,03,11,00,50,7.80
2015,03,11,00,51,7.90
2015,03,11,00,52,7.90
2015,03,11,00,53,7.90
2015,03,11,00,54,7.90
2015,03,11,00,55,7.90
2015,03,11,00,56,8.00
2015,03,11,00,57,8.00
2015,03,11,00,58,8.00
2015,03,11,00,59,8.00
2015,03,11,01,00,8.00
2015,03,11,01,01,8.10
2015,03,11,01,02,8.10
2015,03,11,01,03,8.10
2015,03,11,01,04,8.10
2015,03,11,01,05,8.10
2015,03,11,01,06,8.10
2015,03,11,01,07,8.10
2015,03,11,01,08,8.10
2015,03,11,01,09,8.10
2015,03,11,01,10,8.10
2015,03,11,01,11,8.10
2015,03,11,01,12,8.10
2015,03,11,01,29,8.30
2015,03,11,01,30,8.30
2015,03,11,01,31,8.30
2015,03,11,01,32,8.20
2015,03,11,01,33,8.30
2015,03,11,01,34,8.30
2015,03,11,01,35,8.30
2015,03,11,01,36,8.30
2015,03,11,01,37,8.30
2015,03,11,01,38,8.30
2015,03,11,01,39,8.30
2015,03,11,01,40,8.30
2015,03,11,01,41,8.20
2015,03,11,01,42,8.20
2015,03,11,01,43,8.20
2015,03,11,01,44,8.20
2015,03,11,01,45,8.20
2015,03,11,01,46,8.20
2015,03,11,01,47,8.20
2015,03,11,01,48,8.20
2015,03,11,01,49,8.20
2015,03,11,01,50,8.10
2015,03,11,01,51,8.10
2015,03,11,01,52,8.10
2015,03,11,01,53,8.10
2015,03,11,01,54,8.10
2015,03,11,01,55,8.10
2015,03,11,01,56,8.10
2015,03,11,01,57,8.10
2015,03,11,01,58,8.10
2015,03,11,01,59,8.10
2015,03,11,02,00,8.10
2015,03,11,02,01,8.10
2015,03,11,02,02,8.10
2015,03,11,02,03,8.10
2015,03,11,02,04,8.10
2015,03,11,02,05,8.10
2015,03,11,02,06,8.10
2015,03,11,02,07,8.10
2015,03,11,02,08,8.10
2015,03,11,02,09,8.10
2015,03,11,02,10,8.10
2015,03,11,02,11,8.10
2015,03,11,02,12,8.10
2015,03,11,02,13,8.10
2015,03,11,02,14,8.10
2015,03,11,02,15,8.10
2015,03,11,02,16,8.10
2015,03,11,02,17,8.10
2015,03,11,02,18,8.10
2015,03,11,02,19,8.10
2015,03,11,02,20,8.10
2015,03,11,02,21,8.10
2015,03,11,02,22,8.10
2015,03,11,02,23,8.10
2015,03,11,02,24,8.10
2015,03,11,02,25,8.10
2015,03,11,02,26,8.10
2015,03,11,02,27,8.10
2015,03,11,02,28,8.10
2015,03,11,02,29,8.10
2015,03,11,02,30,8.10
2015,03,11,02,31,8.10
2015,03,11,02,32,8.10
2015,03,11,02,33,8.10
2015,03,11,02,34,8.10
2015,03,11,02,35,8.10
2015,03,11,02,36,8.10
2015,03,11,02,37,8.10
2015,03,11,02,38,8.10
2015,03,11,02,39,8.10
2015,03,11,02,40,8.10
2015,03,11,02,41,8.10
2015,03,11,02,42,8.10
2015,03,11,02,43,8.10
2015,03,11,02,44,8.10
2015,03,11,02,45,8.10
2015,03,11,02,46,8.10
2015,03,11,02,47,8.10
2015,03,11,02,48,8.10
2015,03,11,02,49,8.10
2015,03,11,02,50,8.10
2015,03,11,02,51,8.10
2015,03,11,02,52,8.10
2015,03,11,02,53,8.10
2015,03,11,02,54,8.10
2015,03,11,02,55,8.10
2015,03,11,02,56,8.10
2015,03,11,02,57,8.10
2015,03,11,02,58,8.10
2015,03,11,02,59,8.10
2015,03,11,03,00,8.10
2015,03,11,03,01,8.10
2015,03,11,03,02,8.20
2015,03,11,03,03,8.20
2015,03,11,03,06,8.20
2015,03,11,03,07,8.20
2015,03,11,03,08,8.20
2015,03,11,03,09,8.20
2015,03,11,03,10,8.20
2015,03,11,03,11,8.20
2015,03,11,03,12,8.20
2015,03,11,03,13,8.20
2015,03,11,03,14,8.20
2015,03,11,03,15,8.20
2015,03,11,03,16,8.30
2015,03,11,03,17,8.30
2015,03,11,03,18,8.30
2015,03,11,03,19,8.30
2015,03,11,03,20,8.30
2015,03,11,03,21,8.20
2015,03,11,03,22,8.30
2015,03,11,03,23,8.20
2015,03,11,03,24,8.20
2015,03,11,03,25,8.20
2015,03,11,03,26,8.30
2015,03,11,03,27,8.20
2015,03,11,03,28,8.20
2015,03,11,03,29,8.20
2015,03,11,03,30,8.20
2015,03,11,03,31,8.20
2015,03,11,03,32,8.20
2015,03,11,03,33,8.30
2015,03,11,03,34,8.30
2015,03,11,03,35,8.30
2015,03,11,03,36,8.30
2015,03,11,03,37,8.30
2015,03,11,03,38,8.30
2015,03,11,03,39,8.20
2015,03,11,03,40,8.30
2015,03,11,03,41,8.30
2015,03,11,03,42,8.30
2015,03,11,03,43,8.30
2015,03,11,03,44,8.30
2015,03,11,03,45,8.30
2015,03,11,03,46,8.30
2015,03,11,03,47,8.30
2015,03,11,03,48,8.30
2015,03,11,03,49,8.30
2015,03,11,03,50,8.30
2015,03,11,03,51,8.30
2015,03,11,03,52,8.30
2015,03,11,03,53,8.30
2015,03,11,03,54,8.30
2015,03,11,03,55,8.30
2015,03,11,03,56,8.30
2015,03,11,03,57,8.30
2015,03,11,03,58,8.30
2015,03,11,03,59,8.30
2015,03,11,04,00,8.30
2015,03,11,04,01,8.30
2015,03,11,04,02,8.30
2015,03,11,04,03,8.30
2015,03,11,04,04,8.30
2015,03,11,04,05,8.20
2015,03,11,04,06,8.30
2015,03,11,04,07,8.30
2015,03,11,04,08,8.30
2015,03,11,04,09,8.30
2015,03,11,04,10,8.30
2015,03,11,04,11,8.30
2015,03,11,04,12,8.30
2015,03,11,04,13,8.30
2015,03,11,04,14,8.30
2015,03,11,04,15,8.30
2015,03,11,04,16,8.30
2015,03,11,04,17,8.30
2015,03,11,04,18,8.30
2015,03,11,04,19,8.30
2015,03,11,04,20,8.30
2015,03,11,04,21,8.30
2015,03,11,04,22,8.30
2015,03,11,04,23,8.30
2015,03,11,04,24,8.30
2015,03,11,04,25,8.30
2015,03,11,04,26,8.30
2015,03,11,04,27,8.30
2015,03,11,04,28,8.30
2015,03,11,04,29,8.30
2015,03,11,04,30,8.30
2015,03,11,04,31,8.30
2015,03,11,04,32,8.30
2015,03,11,04,33,8.30
2015,03,11,04,34,8.30
2015,03,11,04,35,8.30
2015,03,11,04,36,8.30
2015,03,11,04,37,8.30
2015,03,11,04,38,8.30
2015,03,11,04,39,8.30
2015,03,11,04,40,8.30
2015,03,11,04,41,8.30
2015,03,11,04,42,8.30
2015,03,11,04,43,8.30
2015,03,11,04,44,8.40
2015,03,11,04,45,8.40
2015,03,11,04,46,8.40
2015,03,11,04,47,8.40
2015,03,11,04,48,8.40
2015,03,11,04,49,8.40
2015,03,11,04,50,8.40
2015,03,11,04,51,8.40
2015,03,11,04,52,8.40
2015,03,11,04,53,8.40
2015,03,11,04,54,8.40
2015,03,11,04,55,8.40
2015,03,11,04,56,8.40
2015,03,11,04,57,8.40
2015,03,11,04,58,8.40
2015,03,11,04,59,8.40
2015,03,11,05,00,8.40
2015,03,11,05,01,8.50
2015,03,11,05,02,8.50
2015,03,11,05,03,8.50
2015,03,11,05,04,8.50
2015,03,11,05,05,8.50
2015,03,11,05,06,8.60
2015,03,11,05,07,8.60
2015,03,11,05,08,8.60
2015,03,11,05,09,8.60
2015,03,11,05,10,8.60
2015,03,11,05,11,8.60
2015,03,11,05,12,8.70
2015,03,11,05,13,8.70
2015,03,11,05,14,8.70
2015,03,11,05,15,8.70
2015,03,11,05,16,8.70
2015,03,11,05,17,8.70
2015,03,11,05,18,8.70
2015,03,11,05,19,8.70
2015,03,11,05,20,8.70
2015,03,11,05,21,8.70
2015,03,11,05,22,8.70
2015,03,11,05,23,8.80
2015,03,11,05,24,8.80
2015,03,11,05,25,8.80
2015,03,11,05,26,8.80
2015,03,11,05,27,8.80
2015,03,11,05,28,8.80
2015,03,11,05,29,8.80
2015,03,11,05,30,8.90
2015,03,11,05,31,8.90
2015,03,11,05,32,8.90
2015,03,11,05,33,8.90
2015,03,11,05,34,8.90
2015,03,11,05,35,8.90
2015,03,11,05,36,8.90
2015,03,11,05,37,9.00
2015,03,11,05,38,9.00
2015,03,11,05,39,9.00
2015,03,11,05,40,9.00
2015,03,11,05,41,9.10
2015,03,11,05,42,9.10
2015,03,11,05,43,9.10
2015,03,11,05,44,9.10
2015,03,11,05,45,9.10
2015,03,11,05,46,9.20
2015,03,11,05,47,9.20
2015,03,11,05,48,9.20
2015,03,11,05,49,9.30
2015,03,11,05,50,9.30
2015,03,11,05,51,9.30
2015,03,11,05,52,9.30
2015,03,11,05,53,9.30
2015,03,11,05,54,9.30
2015,03,11,05,55,9.30
2015,03,11,05,56,9.40
2015,03,11,05,57,9.40
2015,03,11,05,58,9.40
2015,03,11,05,59,9.40
2015,03,11,06,00,9.40
2015,03,11,06,01,9.40
2015,03,11,06,02,9.40
2015,03,11,06,03,9.40
2015,03,11,06,04,9.40
2015,03,11,06,05,9.50
2015,03,11,06,06,9.50
2015,03,11,06,07,9.50
2015,03,11,06,08,9.50
2015,03,11,06,09,9.50
2015,03,11,06,10,9.40
2015,03,11,06,11,9.40
2015,03,11,06,12,9.40
2015,03,11,06,13,9.40
2015,03,11,06,14,9.40
2015,03,11,06,15,9.40
2015,03,11,06,16,9.30
2015,03,11,06,17,9.30
2015,03,11,06,18,9.30
2015,03,11,06,19,9.30
2015,03,11,06,20,9.30
2015,03,11,06,21,9.30
2015,03,11,06,22,9.30
2015,03,11,06,23,9.30
2015,03,11,06,24,9.30
2015,03,11,06,25,9.30
2015,03,11,06,26,9.30
2015,03,11,06,27,9.30
2015,03,11,06,28,9.30
2015,03,11,06,29,9.30
2015,03,11,06,30,9.30
2015,03,11,06,31,9.30
2015,03,11,06,32,9.20
2015,03,11,06,33,9.20
2015,03,11,06,34,9.20
2015,03,11,06,35,9.20
2015,03,11,06,36,9.20
2015,03,11,06,37,9.10
2015,03,11,06,38,9.10
2015,03,11,06,39,9.10
2015,03,11,06,40,9.10
2015,03,11,06,41,9.10
2015,03,11,06,42,9.10
2015,03,11,06,43,9.00
2015,03,11,06,44,9.00
2015,03,11,06,45,9.00
2015,03,11,06,46,9.00
2015,03,11,06,47,9.00
2015,03,11,06,48,9.00
2015,03,11,06,49,9.00
2015,03,11,06,50,9.00
2015,03,11,06,51,9.00
2015,03,11,06,52,9.00
2015,03,11,06,53,9.00
2015,03,11,06,54,9.00
2015,03,11,06,55,9.00
2015,03,11,06,56,9.10
2015,03,11,06,57,9.10
2015,03,11,06,58,9.10
2015,03,11,06,59,9.10
2015,03,11,07,00,9.10
2015,03,11,07,01,9.10
2015,03,11,07,02,9.20
2015,03,11,07,03,9.20
2015,03,11,07,04,9.20
2015,03,11,07,05,9.20
2015,03,11,07,06,9.30
2015,03,11,07,07,9.30
2015,03,11,07,08,9.30
2015,03,11,07,09,9.30
2015,03,11,07,10,9.30
2015,03,11,07,11,9.30
2015,03,11,07,12,9.30
2015,03,11,07,13,9.30
2015,03,11,07,14,9.30
2015,03,11,07,15,9.30
2015,03,11,07,16,9.30
2015,03,11,07,17,9.30
2015,03,11,07,18,9.30
2015,03,11,07,19,9.40
2015,03,11,07,20,9.40
2015,03,11,07,21,9.40
2015,03,11,07,22,9.50
2015,03,11,07,23,9.50
2015,03,11,07,24,9.50
2015,03,11,07,25,9.60
2015,03,11,07,26,9.60
2015,03,11,07,27,9.60
2015,03,11,07,28,9.60
2015,03,11,07,29,9.60
2015,03,11,07,30,9.60
2015,03,11,07,31,9.70
2015,03,11,07,32,9.70
2015,03,11,07,33,9.70
2015,03,11,07,34,9.70
2015,03,11,07,35,9.70
2015,03,11,07,36,9.80
2015,03,11,07,37,9.80
2015,03,11,07,38,9.80
2015,03,11,07,39,9.80
2015,03,11,07,40,9.80
2015,03,11,07,41,9.80
2015,03,11,07,42,9.80
2015,03,11,07,43,9.80
2015,03,11,07,44,9.80
2015,03,11,07,45,9.80
2015,03,11,07,46,9.80
2015,03,11,07,47,9.80
2015,03,11,07,48,9.80
2015,03,11,07,49,9.70
2015,03,11,07,50,9.70
2015,03,11,07,51,9.70
2015,03,11,07,52,9.70
2015,03,11,07,53,9.60
2015,03,11,07,54,9.60
2015,03,11,07,55,9.60
2015,03,11,07,56,9.60
2015,03,11,07,57,9.60
2015,03,11,07,58,9.50
2015,03,11,07,59,9.50
2015,03,11,08,00,9.50
2015,03,11,08,01,9.50
2015,03,11,08,02,9.50
2015,03,11,08,03,9.50
2015,03,11,08,04,9.50
2015,03,11,08,05,9.50
2015,03,11,08,06,9.50
2015,03,11,08,07,9.50
2015,03,11,08,08,9.60
2015,03,11,08,09,9.60
2015,03,11,08,10,9.60
2015,03,11,08,11,9.60
2015,03,11,08,12,9.60
2015,03,11,08,13,9.60
2015,03,11,08,14,9.60
2015,03,11,08,15,9.60
2015,03,11,08,16,9.60
2015,03,11,08,17,9.60
2015,03,11,08,18,9.60
2015,03,11,08,19,9.60
2015,03,11,08,20,9.60
2015,03,11,08,21,9.60
2015,03,11,08,22,9.60
2015,03,11,08,23,9.60
2015,03,11,08,24,9.70
2015,03,11,08,25,9.70
2015,03,11,08,26,9.70
2015,03,11,08,27,9.70
2015,03,11,08,28,9.70
2015,03,11,08,29,9.80
2015,03,11,08,30,9.80
2015,03,11,08,31,9.80
2015,03,11,08,32,9.80
2015,03,11,08,33,9.80
2015,03,11,08,34,9.80
2015,03,11,08,35,9.80
2015,03,11,08,36,9.80
2015,03,11,08,37,9.80
2015,03,11,08,38,9.80
2015,03,11,08,39,9.90
2015,03,11,08,40,9.90
2015,03,11,08,41,9.90
2015,03,11,08,42,9.90
2015,03,11,08,43,9.90
2015,03,11,08,44,9.90
2015,03,11,08,45,9.90
2015,03,11,08,46,9.90
2015,03,11,08,47,9.90
2015,03,11,08,48,9.90
2015,03,11,08,49,9.90
2015,03,11,08,50,9.90
2015,03,11,08,51,9.90
2015,03,11,08,52,9.90
2015,03,11,08,53,9.90
2015,03,11,08,54,9.90
2015,03,11,08,55,9.90
2015,03,11,08,56,9.80
2015,03,11,08,57,9.80
2015,03,11,08,58,9.80
2015,03,11,08,59,9.80
2015,03,11,09,00,9.80
2015,03,11,09,01,9.80
2015,03,11,09,02,9.80
2015,03,11,09,03,9.80
2015,03,11,09,04,9.80
2015,03,11,09,05,9.80
2015,03,11,09,06,9.80
2015,03,11,09,07,9.80
2015,03,11,09,08,9.80
2015,03,11,09,09,9.80
2015,03,11,09,10,9.80
2015,03,11,09,11,9.80
2015,03,11,09,12,9.80
2015,03,11,09,13,9.80
2015,03,11,09,14,9.80
2015,03,11,09,15,9.80
2015,03,11,09,16,9.80
2015,03,11,09,17,9.80
2015,03,11,09,18,9.80
2015,03,11,09,19,9.80
2015,03,11,09,20,9.80
2015,03,11,09,21,9.80
2015,03,11,09,22,9.80
2015,03,11,09,23,9.80
2015,03,11,09,24,9.80
2015,03,11,09,25,9.90
2015,03,11,09,26,9.80
2015,03,11,09,27,9.90
2015,03,11,09,28,9.80
2015,03,11,09,29,9.80
2015,03,11,09,30,9.80
2015,03,11,09,31,9.90
2015,03,11,09,32,9.90
2015,03,11,09,33,9.90
2015,03,11,09,34,9.90
2015,03,11,09,35,9.90
2015,03,11,09,36,9.90
2015,03,11,09,37,9.90
2015,03,11,09,38,9.90
2015,03,11,09,39,9.90
2015,03,11,09,40,9.90
2015,03,11,09,41,9.90
2015,03,11,09,42,9.90
2015,03,11,09,43,9.90
2015,03,11,09,44,10.00
2015,03,11,09,45,10.00
2015,03,11,09,46,10.00
2015,03,11,09,47,10.00
2015,03,11,09,48,10.00
2015,03,11,09,49,10.00
2015,03,11,09,50,10.00
2015,03,11,09,51,10.00
2015,03,11,09,52,10.00
2015,03,11,09,53,10.10
2015,03,11,09,54,10.10
2015,03,11,09,55,10.10
2015,03,11,09,56,10.10
2015,03,11,09,57,10.10
2015,03,11,09,58,10.10
2015,03,11,09,59,10.20
2015,03,11,10,00,10.20
2015,03,11,10,01,10.20
2015,03,11,10,02,10.20
2015,03,11,10,03,10.20
2015,03,11,10,04,10.20
2015,03,11,10,05,10.20
2015,03,11,10,06,10.30
2015,03,11,10,07,10.30
2015,03,11,10,08,10.30
2015,03,11,10,09,10.30
2015,03,11,10,10,10.40
2015,03,11,10,11,10.40
2015,03,11,10,12,10.40
2015,03,11,10,13,10.40
2015,03,11,10,14,10.40
2015,03,11,10,15,10.40
2015,03,11,10,16,10.40
2015,03,11,10,17,10.50
2015,03,11,10,18,10.50
2015,03,11,10,19,10.50
2015,03,11,10,20,10.50
2015,03,11,10,21,10.50
2015,03,11,10,22,10.60
2015,03,11,10,23,10.60
2015,03,11,10,24,10.60
2015,03,11,10,25,10.60
2015,03,11,10,26,10.60
2015,03,11,10,27,10.60
2015,03,11,10,28,10.60
2015,03,11,10,29,10.60
2015,03,11,10,30,10.60
2015,03,11,10,31,10.60
2015,03,11,10,32,10.60
2015,03,11,10,33,10.60
2015,03,11,10,34,10.60
2015,03,11,10,35,10.60
2015,03,11,10,36,10.70
2015,03,11,10,37,10.70
2015,03,11,10,38,10.70
2015,03,11,10,39,10.70
2015,03,11,10,40,10.70
2015,03,11,10,41,10.70
2015,03,11,10,42,10.70
2015,03,11,10,43,10.70
2015,03,11,10,44,10.70
2015,03,11,10,45,10.70
2015,03,11,10,46,10.80
2015,03,11,10,47,10.80
2015,03,11,10,48,10.80
2015,03,11,10,49,10.80
2015,03,11,10,50,10.80
2015,03,11,10,51,10.80
2015,03,11,10,52,10.80
2015,03,11,10,53,10.80
2015,03,11,10,54,10.80
2015,03,11,10,55,10.80
2015,03,11,10,56,10.80
2015,03,11,10,57,10.80
2015,03,11,10,58,10.80
2015,03,11,10,59,10.80
2015,03,11,11,00,10.80
2015,03,11,11,01,10.80
2015,03,11,11,02,10.80
2015,03,11,11,03,10.80
2015,03,11,11,04,10.80
2015,03,11,11,05,10.90
2015,03,11,11,06,10.90
2015,03,11,11,07,10.90
2015,03,11,11,08,10.90
2015,03,11,11,09,10.90
2015,03,11,11,10,10.90
2015,03,11,11,11,10.90
2015,03,11,11,12,10.90
2015,03,11,11,13,10.90
2015,03,11,11,14,10.90
2015,03,11,11,15,10.90
2015,03,11,11,16,10.90
2015,03,11,11,17,10.90
2015,03,11,11,18,10.90
2015,03,11,11,19,10.90
2015,03,11,11,20,10.90
2015,03,11,11,21,10.90
2015,03,11,11,22,10.90
2015,03,11,11,23,10.90
2015,03,11,11,24,10.90
2015,03,11,11,25,10.90
2015,03,11,11,26,10.90
2015,03,11,11,27,10.90
2015,03,11,11,28,10.90
2015,03,11,11,29,11.00
2015,03,11,11,30,11.00
2015,03,11,11,31,11.00
2015,03,11,11,32,11.00
2015,03,11,11,33,11.00
2015,03,11,11,34,11.00
2015,03,11,11,35,11.00
2015,03,11,11,36,11.10
2015,03,11,11,37,11.10
2015,03,11,11,38,11.10
2015,03,11,11,39,11.10
2015,03,11,11,40,11.20
2015,03,11,11,41,11.20
2015,03,11,11,42,11.20
2015,03,11,11,43,11.20
2015,03,11,11,44,11.30
2015,03,11,11,45,11.30
2015,03,11,11,46,11.30
2015,03,11,11,47,11.30
2015,03,11,11,48,11.30
2015,03,11,11,49,11.40
2015,03,11,11,50,11.40
2015,03,11,11,51,11.40
2015,03,11,11,52,11.40
2015,03,11,11,53,11.40
2015,03,11,11,54,11.40
2015,03,11,11,55,11.40
2015,03,11,11,56,11.40
2015,03,11,11,57,11.50
2015,03,11,11,58,11.50
2015,03,11,11,59,11.50
2015,03,11,12,00,11.60
2015,03,11,12,01,11.60
2015,03,11,12,02,11.60
2015,03,11,12,03,11.60
2015,03,11,12,04,11.60
2015,03,11,12,05,11.60
2015,03,11,12,06,11.60
2015,03,11,12,07,11.60
2015,03,11,12,08,11.60
2015,03,11,12,09,11.60
2015,03,11,12,10,11.60
2015,03,11,12,11,11.70
2015,03,11,12,12,11.70
2015,03,11,12,13,11.70
2015,03,11,12,14,11.60
2015,03,11,12,15,11.60
2015,03,11,12,16,11.60
2015,03,11,12,17,11.60
2015,03,11,12,18,11.60
2015,03,11,12,19,11.60
2015,03,11,12,20,11.60
2015,03,11,12,21,11.60
2015,03,11,12,22,11.60
2015,03,11,12,23,11.60
2015,03,11,12,24,11.60
2015,03,11,12,25,11.50
2015,03,11,12,26,11.50
2015,03,11,12,27,11.40
2015,03,11,12,28,11.40
2015,03,11,12,29,11.40
2015,03,11,12,30,11.30
2015,03,11,12,31,11.30
2015,03,11,12,32,11.30
2015,03,11,12,33,11.30
2015,03,11,12,34,11.30
2015,03,11,12,35,11.30
2015,03,11,12,36,11.30
2015,03,11,12,37,11.30
2015,03,11,12,38,11.30
2015,03,11,12,39,11.30
2015,03,11,12,40,11.30
2015,03,11,12,41,11.30
2015,03,11,12,42,11.30
2015,03,11,12,43,11.30
2015,03,11,12,44,11.30
2015,03,11,12,45,11.30
2015,03,11,12,46,11.30
2015,03,11,12,47,11.30
2015,03,11,12,48,11.30
2015,03,11,12,49,11.30
2015,03,11,12,50,11.30
2015,03,11,12,51,11.30
2015,03,11,12,52,11.30
2015,03,11,12,53,11.20
2015,03,11,12,54,11.20
2015,03,11,12,55,11.20
2015,03,11,12,56,11.20
2015,03,11,12,57,11.20
2015,03,11,12,58,11.20
2015,03,11,12,59,11.20
2015,03,11,13,00,11.20
2015,03,11,13,01,11.20
2015,03,11,13,02,11.30
2015,03,11,13,03,11.30
2015,03,11,13,04,11.30
2015,03,11,13,05,11.40
2015,03,11,13,06,11.40
2015,03,11,13,07,11.40
2015,03,11,13,08,11.40
2015,03,11,13,09,11.40
2015,03,11,13,10,11.40
2015,03,11,13,11,11.40
2015,03,11,13,12,11.40
2015,03,11,13,13,11.40
2015,03,11,13,14,11.40
2015,03,11,13,15,11.40
2015,03,11,13,16,11.40
2015,03,11,13,17,11.40
2015,03,11,13,18,11.40
2015,03,11,13,19,11.40
2015,03,11,13,20,11.40
2015,03,11,13,21,11.40
2015,03,11,13,22,11.40
2015,03,11,13,23,11.40
2015,03,11,13,24,11.40
2015,03,11,13,25,11.40
2015,03,11,13,26,11.40
2015,03,11,13,27,11.40
2015,03,11,13,28,11.40
2015,03,11,13,29,11.40
2015,03,11,13,30,11.40
2015,03,11,13,31,11.30
2015,03,11,13,32,11.30
2015,03,11,13,33,11.30
2015,03,11,13,34,11.30
2015,03,11,13,35,11.30
2015,03,11,13,36,11.30
2015,03,11,13,37,11.30
2015,03,11,13,38,11.40
2015,03,11,13,39,11.40
2015,03,11,13,40,11.40
2015,03,11,13,41,11.40
2015,03,11,13,42,11.40
2015,03,11,13,43,11.40
2015,03,11,13,44,11.40
2015,03,11,13,45,11.40
2015,03,11,13,46,11.40
2015,03,11,13,47,11.40
2015,03,11,13,48,11.50
2015,03,11,13,49,11.50
2015,03,11,13,50,11.50
2015,03,11,13,51,11.50
2015,03,11,13,52,11.60
2015,03,11,13,53,11.50
2015,03,11,13,54,11.50
2015,03,11,13,55,11.50
2015,03,11,13,56,11.50
2015,03,11,13,57,11.50
2015,03,11,13,58,11.50
2015,03,11,13,59,11.60
2015,03,11,14,00,11.60
2015,03,11,14,01,11.60
2015,03,11,14,02,11.60
2015,03,11,14,03,11.60
2015,03,11,14,04,11.60
2015,03,11,14,05,11.60
2015,03,11,14,06,11.60
2015,03,11,14,07,11.60
2015,03,11,14,08,11.60
2015,03,11,14,09,11.60
2015,03,11,14,10,11.60
2015,03,11,14,11,11.60
2015,03,11,14,12,11.60
2015,03,11,14,13,11.60
2015,03,11,14,14,11.60
2015,03,11,14,15,11.60
2015,03,11,14,16,11.60
2015,03,11,14,17,11.60
2015,03,11,14,18,11.70
2015,03,11,14,19,11.70
2015,03,11,14,20,11.70
2015,03,11,14,21,11.70
2015,03,11,14,22,11.80
2015,03,11,14,23,11.80
2015,03,11,14,24,11.90
2015,03,11,14,25,12.00
2015,03,11,14,26,12.10
2015,03,11,14,27,12.10
2015,03,11,14,28,12.20
2015,03,11,14,29,12.30
2015,03,11,14,30,12.30
2015,03,11,14,31,12.50
2015,03,11,14,32,12.60
2015,03,11,14,33,12.70
2015,03,11,14,34,12.70
2015,03,11,14,35,12.80
2015,03,11,14,36,12.90
2015,03,11,14,37,12.90
2015,03,11,14,38,13.00
2015,03,11,14,39,13.10
2015,03,11,14,40,13.10
2015,03,11,14,41,13.10
2015,03,11,14,42,13.20
2015,03,11,14,43,13.20
2015,03,11,14,44,13.30
2015,03,11,14,45,13.30
2015,03,11,14,46,13.40
2015,03,11,14,47,13.40
2015,03,11,14,48,13.40
2015,03,11,14,49,13.40
2015,03,11,14,50,13.40
2015,03,11,14,51,13.40
2015,03,11,14,52,13.50
2015,03,11,14,53,13.50
2015,03,11,14,54,13.50
2015,03,11,14,55,13.50
2015,03,11,14,56,13.60
2015,03,11,14,57,13.50
2015,03,11,14,58,13.50
2015,03,11,14,59,13.50
2015,03,11,15,00,13.40
2015,03,11,15,01,13.40
2015,03,11,15,02,13.40
2015,03,11,15,03,13.30
2015,03,11,15,04,13.30
2015,03,11,15,05,13.20
2015,03,11,15,06,13.20
2015,03,11,15,07,13.20
2015,03,11,15,08,13.20
2015,03,11,15,09,13.20
2015,03,11,15,10,13.20
2015,03,11,15,11,13.20
2015,03,11,15,12,13.10
2015,03,11,15,13,13.10
2015,03,11,15,14,13.10
2015,03,11,15,15,13.10
2015,03,11,15,16,13.10
2015,03,11,15,17,13.00
2015,03,11,15,18,13.00
2015,03,11,15,19,13.00
2015,03,11,15,20,12.90
2015,03,11,15,21,12.90
2015,03,11,15,22,12.90
2015,03,11,15,23,12.80
2015,03,11,15,24,12.80
2015,03,11,15,25,12.70
2015,03,11,15,26,12.60
2015,03,11,15,27,12.50
2015,03,11,15,28,12.50
2015,03,11,15,29,12.40
2015,03,11,15,30,12.40
2015,03,11,15,31,12.30
2015,03,11,15,32,12.30
2015,03,11,15,33,12.30
2015,03,11,15,34,12.30
2015,03,11,15,35,12.30
2015,03,11,15,36,12.20
2015,03,11,15,37,12.20
2015,03,11,15,38,12.20
2015,03,11,15,39,12.20
2015,03,11,15,40,12.20
2015,03,11,15,41,12.20
2015,03,11,15,42,12.20
2015,03,11,15,43,12.20
2015,03,11,15,44,12.10
2015,03,11,15,45,12.10
2015,03,11,15,46,12.00
2015,03,11,15,47,12.00
2015,03,11,15,48,12.00
2015,03,11,15,49,11.90
2015,03,11,15,50,11.90
2015,03,11,15,51,11.90
2015,03,11,15,52,11.90
2015,03,11,15,53,11.90
2015,03,11,15,54,11.90
2015,03,11,15,55,11.90
2015,03,11,15,56,11.90
2015,03,11,15,57,11.80
2015,03,11,15,58,11.80
2015,03,11,15,59,11.80
2015,03,11,16,00,11.70
2015,03,11,16,01,11.70
2015,03,11,16,02,11.60
2015,03,11,16,03,11.60
2015,03,11,16,04,11.60
2015,03,11,16,05,11.60
2015,03,11,16,06,11.60
2015,03,11,16,07,11.60
2015,03,11,16,08,11.60
2015,03,11,16,09,11.60
2015,03,11,16,10,11.60
2015,03,11,16,11,11.70
2015,03,11,16,12,11.70
2015,03,11,16,13,11.70
2015,03,11,16,14,11.70
2015,03,11,16,15,11.70
2015,03,11,16,16,11.70
2015,03,11,16,17,11.70
2015,03,11,16,18,11.60
2015,03,11,16,19,11.60
2015,03,11,16,20,11.60
2015,03,11,16,21,11.50
2015,03,11,16,22,11.50
2015,03,11,16,23,11.40
2015,03,11,16,24,11.30
2015,03,11,16,25,11.30
2015,03,11,16,26,11.30
2015,03,11,16,27,11.20
2015,03,11,16,28,11.20
2015,03,11,16,29,11.10
2015,03,11,16,30,11.00
2015,03,11,16,31,11.00
2015,03,11,16,32,11.00
2015,03,11,16,33,10.90
2015,03,11,16,34,10.80
2015,03,11,16,35,10.80
2015,03,11,16,36,10.80
2015,03,11,16,37,10.70
2015,03,11,16,38,10.70
2015,03,11,16,39,10.70
2015,03,11,16,40,10.70
2015,03,11,16,41,10.70
2015,03,11,16,42,10.70
2015,03,11,16,43,10.70
2015,03,11,16,44,10.60
2015,03,11,16,45,10.60
2015,03,11,16,46,10.60
2015,03,11,16,47,10.60
2015,03,11,16,48,10.60
2015,03,11,16,49,10.60
2015,03,11,16,50,10.60
2015,03,11,16,51,10.60
2015,03,11,16,52,10.60
2015,03,11,16,53,10.60
2015,03,11,16,54,10.60
2015,03,11,16,55,10.60
2015,03,11,16,56,10.70
2015,03,11,16,57,10.70
2015,03,11,16,58,10.70
2015,03,11,16,59,10.70
2015,03,11,17,00,10.80
2015,03,11,17,01,10.80
2015,03,11,17,02,10.80
2015,03,11,17,03,10.80
2015,03,11,17,04,10.80
2015,03,11,17,05,10.80
2015,03,11,17,06,10.80
2015,03,11,17,07,10.80
2015,03,11,17,08,10.80
2015,03,11,17,09,10.70
2015,03,11,17,10,10.70
2015,03,11,17,11,10.70
2015,03,11,17,12,10.70
2015,03,11,17,13,10.70
2015,03,11,17,14,10.70
2015,03,11,17,15,10.70
2015,03,11,17,16,10.70
2015,03,11,17,17,10.70
2015,03,11,17,18,10.70
2015,03,11,17,19,10.70
2015,03,11,17,20,10.60
2015,03,11,17,21,10.60
2015,03,11,17,22,10.60
2015,03,11,17,23,10.60
2015,03,11,17,24,10.60
2015,03,11,17,25,10.60
2015,03,11,17,26,10.60
2015,03,11,17,27,10.60
2015,03,11,17,28,10.50
2015,03,11,17,29,10.50
2015,03,11,17,30,10.50
2015,03,11,17,31,10.50
2015,03,11,17,32,10.40
2015,03,11,17,33,10.40
2015,03,11,17,34,10.40
2015,03,11,17,35,10.40
2015,03,11,17,36,10.40
2015,03,11,17,37,10.50
2015,03,11,17,38,10.50
2015,03,11,17,39,10.50
2015,03,11,17,40,10.50
2015,03,11,17,41,10.50
2015,03,11,17,42,10.50
2015,03,11,17,43,10.60
2015,03,11,17,44,10.60
2015,03,11,17,45,10.60
2015,03,11,17,46,10.60
2015,03,11,17,47,10.60
2015,03,11,17,48,10.60
2015,03,11,17,49,10.60
2015,03,11,17,50,10.50
2015,03,11,17,51,10.50
2015,03,11,17,52,10.50
2015,03,11,17,53,10.60
2015,03,11,17,54,10.60
2015,03,11,17,55,10.60
2015,03,11,17,56,10.60
2015,03,11,17,57,10.60
2015,03,11,17,58,10.60
2015,03,11,17,59,10.70
2015,03,11,18,00,10.70
2015,03,11,18,01,10.70
2015,03,11,18,02,10.70